Tracking 31027 objects as of 19-Jul-2025
HD Live streaming from Space Station
objects crossing your sky now

LUMELITE 4

Track LUMELITE 4 now!
10-day predictions


NORAD ID: 56309
Int'l Code: 2023-057B
Perigee: 528.1 km
Apogee: 537.1 km
Inclination: 10.0 °
Period: 95.1 minutes
Semi major axis: 6903 km
RCS: Unknown
Launch date: April 22, 2023
Source: Singapore (SING)
Launch site: SRIHARIKOTA (SRI)
Your satellite tracking list
Your tracking list is empty




NASA's NSSDC Master Catalog

Two Line Element Set (TLE):
1 56309U 23057B   25199.84449695  .00007937  00000-0  38467-3 0  9992
2 56309   9.9937  50.0080 0006506 247.4751 112.4775 15.13536933123329
Source of the keplerian elements: AFSPC